Location: Alincthun
(50.7310°N, 1.8022°E)
Time: 21:42:02
(UTC+00:00)

Aureole 2 Rocket - Pass Details

Date: 17 February 2020
Orbit: 308 x 450 km, 73.9° (Epoch: 29 March)

Event Time Altitude Azimuth Distance (km) Brightness Sun altitude
Exits shadow 04:18:16 17° 53° (NE) 1,036 4.9 -26.5°
Drops below altitude 10° 04:20:23 10° 98° (E) 1,383 5.7 -26.1°
Enters shadow 05:24:59 -52° 335° (NNW) 10,493 9.3 -16.0°
Maximum altitude 05:52:16 33° 252° (WSW) 653 2.7 -11.7°
